When you browse on this site, cookies collect data to enhance your experience and personalize the content and advertising you see.
Visit our Privacy Policy to learn more. By continuing to use the site, you agree to this use of cookies and data.
  • In Österreich
  • Länderverzeichnis
  • Für 7 Tage
  • Wassertemperatur
  • Satellitenkarten
  • Wetterkarte
  • News
  • Widgets
  • user-avatar
    Anmelden

    Stündliche Wetter Cairns

    Heute, 18 Juli, Donnerstag

    Zeit Temperatur Niederschläge Wind Luftdruck Luftfeuchtigkeit
    00:00 +13°C° 0 mm 4 m/S 762 mmHg 89%
    01:00 +13°C° 0 mm 3 m/S 762 mmHg 88%
    02:00 +13°C° 0 mm 3 m/S 762 mmHg 88%
    03:00 +13°C° 0 mm 3 m/S 762 mmHg 88%
    04:00 +13°C° 0 mm 3 m/S 762 mmHg 84%
    05:00 +13°C° 0 mm 3 m/S 762 mmHg 87%
    06:00 +13°C° 0 mm 3 m/S 762 mmHg 90%
    07:00 +13°C° 0 mm 3 m/S 762 mmHg 93%
    08:00 +17°C° 0 mm 4 m/S 762 mmHg 80%
    09:00 +20°C° 0 mm 4 m/S 763 mmHg 67%
    10:00 +25°C° 0 mm 4 m/S 763 mmHg 53%
    11:00 +26°C° 0 mm 4 m/S 762 mmHg 50%
    12:00 +26°C° 0 mm 4 m/S 762 mmHg 46%
    13:00 +27°C° 0 mm 5 m/S 761 mmHg 42%
    14:00 +26°C° 0 mm 5 m/S 761 mmHg 45%
    15:00 +26°C° 0 mm 5 m/S 761 mmHg 48%
    16:00 +25°C° 0 mm 5 m/S 761 mmHg 52%
    17:00 +22°C° 0 mm 4 m/S 761 mmHg 63%
    18:00 +19°C° 0 mm 4 m/S 761 mmHg 73%
    19:00 +17°C° 0 mm 4 m/S 761 mmHg 83%
    20:00 +15°C° 0 mm 4 m/S 762 mmHg 84%
    21:00 +16°C° 0 mm 3 m/S 762 mmHg 85%
    22:00 +14°C° 0 mm 3 m/S 762 mmHg 86%
    23:00 +13°C° 0 mm 3 m/S 762 mmHg 82%

    Morgen, 19 Juli, Freitag

    Zeit Temperatur Niederschläge Wind Luftdruck Luftfeuchtigkeit
    00:00 +13°C° 0 mm 3 m/S 762 mmHg 77%
    01:00 +13°C° 0 mm 3 m/S 762 mmHg 73%
    02:00 +13°C° 0 mm 3 m/S 762 mmHg 74%
    03:00 +13°C° 0 mm 3 m/S 762 mmHg 75%
    04:00 +13°C° 0 mm 3 m/S 762 mmHg 76%
    05:00 +13°C° 0 mm 3 m/S 762 mmHg 79%
    06:00 +13°C° 0 mm 3 m/S 762 mmHg 83%
    07:00 +13°C° 0 mm 4 m/S 762 mmHg 87%
    08:00 +17°C° 0 mm 4 m/S 763 mmHg 75%
    09:00 +20°C° 0 mm 4 m/S 763 mmHg 64%
    10:00 +23°C° 0 mm 4 m/S 763 mmHg 53%
    11:00 +23°C° 0 mm 4 m/S 762 mmHg 51%
    12:00 +25°C° 0 mm 5 m/S 762 mmHg 48%
    13:00 +26°C° 0 mm 5 m/S 761 mmHg 46%
    14:00 +26°C° 0 mm 5 m/S 761 mmHg 48%
    15:00 +25°C° 0 mm 5 m/S 761 mmHg 50%
    16:00 +23°C° 0 mm 5 m/S 761 mmHg 52%
    17:00 +21°C° 0 mm 5 m/S 761 mmHg 61%
    18:00 +19°C° 0 mm 4 m/S 761 mmHg 70%
    19:00 +15°C° 0 mm 4 m/S 762 mmHg 79%
    20:00 +15°C° 0 mm 4 m/S 762 mmHg 82%
    21:00 +14°C° 0 mm 4 m/S 762 mmHg 84%
    22:00 +13°C° 0 mm 3 m/S 763 mmHg 87%
    23:00 +13°C° 0 mm 3 m/S 763 mmHg 87%

    übermorgen, 20 Juli, Samstag

    Zeit Temperatur Niederschläge Wind Luftdruck Luftfeuchtigkeit
    00:00 +13°C° 0 mm 3 m/S 762 mmHg 86%
    01:00 +12°C° 0 mm 3 m/S 762 mmHg 86%
    02:00 +12°C° 0 mm 3 m/S 762 mmHg 86%
    03:00 +12°C° 0 mm 3 m/S 762 mmHg 86%
    04:00 +12°C° 0 mm 4 m/S 762 mmHg 85%
    05:00 +12°C° 0 mm 3 m/S 762 mmHg 86%
    06:00 +12°C° 0 mm 3 m/S 762 mmHg 88%
    07:00 +12°C° 0 mm 3 m/S 762 mmHg 89%
    08:00 +15°C° 0 mm 4 m/S 763 mmHg 78%
    09:00 +19°C° 0 mm 4 m/S 763 mmHg 67%
    10:00 +22°C° 0 mm 4 m/S 763 mmHg 56%
    11:00 +23°C° 0 mm 4 m/S 763 mmHg 54%
    12:00 +25°C° 0 mm 5 m/S 762 mmHg 52%
    13:00 +26°C° 0 mm 5 m/S 761 mmHg 50%
    14:00 +25°C° 0 mm 5 m/S 761 mmHg 51%
    15:00 +25°C° 0 mm 4 m/S 761 mmHg 53%
    16:00 +23°C° 0 mm 4 m/S 760 mmHg 54%
    17:00 +21°C° 0 mm 4 m/S 761 mmHg 64%
    18:00 +19°C° 0 mm 4 m/S 761 mmHg 74%
    19:00 +17°C° 0 mm 3 m/S 761 mmHg 84%
    20:00 +16°C° 0 mm 3 m/S 762 mmHg 86%
    21:00 +16°C° 0 mm 3 m/S 762 mmHg 89%
    22:00 +14°C° 0 mm 3 m/S 762 mmHg 92%
    23:00 +14°C° 0 mm 3 m/S 762 mmHg 92%

    21 Juli, Sonntag

    Zeit Temperatur Niederschläge Wind Luftdruck Luftfeuchtigkeit
    00:00 +14°C° 0 mm 3 m/S 762 mmHg 93%
    01:00 +14°C° 0 mm 3 m/S 761 mmHg 93%
    02:00 +14°C° 0 mm 3 m/S 761 mmHg 93%
    03:00 +14°C° 0 mm 3 m/S 761 mmHg 92%
    04:00 +15°C° 0 mm 2 m/S 761 mmHg 92%
    05:00 +15°C° 0 mm 2 m/S 761 mmHg 92%
    06:00 +15°C° 0 mm 2 m/S 761 mmHg 93%
    07:00 +15°C° 0 mm 2 m/S 761 mmHg 93%
    08:00 +18°C° 0 mm 3 m/S 761 mmHg 81%
    09:00 +21°C° 0 mm 3 m/S 761 mmHg 69%
    10:00 +26°C° 0 mm 3 m/S 762 mmHg 57%
    11:00 +26°C° 0 mm 3 m/S 761 mmHg 54%
    12:00 +27°C° 0 mm 4 m/S 760 mmHg 51%
    13:00 +28°C° 0 mm 4 m/S 760 mmHg 48%
    14:00 +27°C° 0 mm 4 m/S 759 mmHg 52%
    15:00 +26°C° 0 mm 4 m/S 759 mmHg 57%
    16:00 +26°C° 0 mm 4 m/S 758 mmHg 61%
    17:00 +23°C° 0 mm 4 m/S 759 mmHg 72%
    18:00 +20°C° 0 mm 3 m/S 759 mmHg 83%
    19:00 +18°C° 0 mm 3 m/S 760 mmHg 94%
    20:00 +18°C° 0 mm 3 m/S 760 mmHg 95%
    21:00 +18°C° 0 mm 3 m/S 760 mmHg 95%
    22:00 +17°C° 0 mm 3 m/S 761 mmHg 96%
    23:00 +17°C° 0 mm 3 m/S 760 mmHg 95%

    22 Juli, Montag

    Zeit Temperatur Niederschläge Wind Luftdruck Luftfeuchtigkeit
    00:00 +16°C° 0 mm 3 m/S 760 mmHg 95%
    01:00 +16°C° 0 mm 3 m/S 760 mmHg 94%
    02:00 +16°C° 0 mm 3 m/S 760 mmHg 94%
    03:00 +16°C° 0 mm 3 m/S 760 mmHg 94%
    04:00 +16°C° 0 mm 2 m/S 759 mmHg 94%
    05:00 +16°C° 0 mm 3 m/S 760 mmHg 93%
    06:00 +16°C° 0 mm 3 m/S 760 mmHg 93%
    07:00 +16°C° 0 mm 3 m/S 760 mmHg 92%
    08:00 +19°C° 0 mm 3 m/S 761 mmHg 79%
    09:00 +22°C° 0 mm 3 m/S 761 mmHg 66%
    10:00 +27°C° 0 mm 3 m/S 761 mmHg 53%
    11:00 +28°C° 0 mm 3 m/S 760 mmHg 50%
    12:00 +29°C° 0 mm 4 m/S 760 mmHg 48%
    13:00 +29°C° 0 mm 4 m/S 759 mmHg 45%
    14:00 +29°C° 0 mm 4 m/S 759 mmHg 49%
    15:00 +28°C° 0 mm 4 m/S 758 mmHg 53%
    16:00 +28°C° 0 mm 5 m/S 758 mmHg 57%
    17:00 +26°C° 0 mm 4 m/S 759 mmHg 70%
    18:00 +22°C° 0 mm 4 m/S 759 mmHg 82%
    19:00 +20°C° 0 mm 4 m/S 760 mmHg 94%
    20:00 +20°C° 0 mm 4 m/S 760 mmHg 95%
    21:00 +20°C° 0 mm 4 m/S 760 mmHg 96%
    22:00 +19°C° 0 mm 3 m/S 761 mmHg 97%
    23:00 +19°C° 0 mm 3 m/S 761 mmHg 97%

    23 Juli, Dienstag

    Zeit Temperatur Niederschläge Wind Luftdruck Luftfeuchtigkeit
    00:00 +19°C° 0 mm 3 m/S 760 mmHg 97%
    01:00 +19°C° 0 mm 3 m/S 760 mmHg 97%
    02:00 +19°C° 0 mm 3 m/S 760 mmHg 97%
    03:00 +19°C° 0 mm 3 m/S 760 mmHg 97%
    04:00 +19°C° 0 mm 3 m/S 760 mmHg 97%
    05:00 +19°C° 0 mm 3 m/S 760 mmHg 97%
    06:00 +19°C° 0 mm 3 m/S 760 mmHg 97%
    07:00 +19°C° 0 mm 3 m/S 761 mmHg 97%
    08:00 +22°C° 0 mm 4 m/S 761 mmHg 86%
    09:00 +25°C° 0 mm 4 m/S 761 mmHg 75%
    10:00 +27°C° 0 mm 4 m/S 762 mmHg 64%
    11:00 +28°C° 0 mm 4 m/S 761 mmHg 62%
    12:00 +29°C° 0 mm 5 m/S 761 mmHg 60%
    13:00 +29°C° 0 mm 5 m/S 760 mmHg 58%
    14:00 +29°C° 0.1 mm 5 m/S 760 mmHg 61%
    15:00 +28°C° 0.1 mm 5 m/S 760 mmHg 64%
    16:00 +27°C° 0.1 mm 5 m/S 759 mmHg 66%
    17:00 +26°C° 0 mm 4 m/S 760 mmHg 76%
    18:00 +23°C° 0 mm 4 m/S 760 mmHg 86%
    19:00 +21°C° 0 mm 4 m/S 761 mmHg 96%
    20:00 +21°C° 0 mm 4 m/S 761 mmHg 96%
    21:00 +20°C° 0 mm 4 m/S 762 mmHg 97%
    22:00 +20°C° 0 mm 3 m/S 762 mmHg 97%
    23:00 +20°C° 0.1 mm 3 m/S 762 mmHg 97%
    Mehr zeigen